GEESAT 4-11

导读

GEESAT 4-11是中国于2025年8月8日发射的低轨商业卫星,隶属于吉利科技集团旗下时空道宇GeeSAT星座体系。该星座主打模块化量产路线,具备高弹性、高性能特性,GEESAT 4-11将与已组网卫星协同,服务于天地一体化信息网络建设,可为物联网、智能出行、地理测绘等领域提供天基支撑,助力中国商业低轨卫星星座的组网进程。

Basic Information
目录编号:
65129
目录名称:
GEESAT 4-11
国际标识:
2025-170L
轨道中心:
EARTH
卫星名称:
GEESAT 4-11
卫星全名:
GEESAT 4-11
卫星状态:
在轨 (已飞行309 天)
发射日期:
2025-08-08 UTC
国别 :
中国 (CN)
星等 :
--
Orbit Information
数据来源 国际轨道数据
星历时间: 2026-06-13T03:09:37+0800
6小时前
查看轨道信息
半长轴: 6994.94km
偏心率: 0.0006599
轨道倾角: 49.983°
近地点辐角 72.438°
升交点赤经 194.111°
平近点角 287.728°
近地点: 612.187km
远地点: 621.419km
周期: 97.037分钟
每日圈数: 14.839758
Detailed Information
使用方式:
暂无
2D Orbit Map
3D Orbit Map
Orbit Altitude Analysis Chart
Orbit Inclination Analysis Chart
Orbit Comprehensive Analysis Chart
View Comprehensive Chart